Etusivu
METAR-TAF:

METAR-TAF

Lentoasemat :

Skövde, Ruotsi

Leveyspiiri: 58-27N, Pituuspiiri: 013-58E, korkeus merenpinnasta: 98 m

Tämänhetkinen sää

Tämä raportti tehtiin 21 minuuttia sitten, kello 20.20 UTC
Tuuli 6 kn idästä
Lämpötila 18°C
Kosteus 56%
Ilmanpaine 1015 hPa
Näkyvyys 10 km tai enemmän

METAR: ESGR 232020Z AUTO 08006KT 9999 OVC150/// 18/09 Q1015

Aika: 22:41 (20:41 UTC)


TAF: puuttuu

Säähavainnot ja -ennusteet yli 4000 lentoasemalta (METAR- ja TAF-raportit).

Käytössä olevat sääasemat on merkitty karttaan keltaisilla ja punaisilla pisteillä.

Aseta hiiri pisteen päälle nähdäksesi sääaseman nimen.

Klikkaa sitten nähdäksesi säähavainnot ja -ennusteet.

Kartan vaihtaminen: klikkaa mustalla rastilla varustettuja vihreitä pisteitä, niin voit zoomata sisään; viivalla varustettua vihreää pistettä, niin voit zoomata ulos tai vihreitä nuolia, niin pääset viereisille kartoille.


METAR-TAF: